Time,TemperatureF,DewpointF,PressureIn,WindDirection,WindDirectionDegrees,WindSpeedMPH,WindSpeedGustMPH,Humidity,HourlyPrecipIn,Conditions,Clouds,dailyrainin,SoftwareType,DateUTC
2013-05-06 00:01:00,45.7,41.1,30.21,ENE,68,1.1,3.5,84,0.00,CLR,,0.00,WeatherDisplay:10.37,2013-05-06 04:01:00,
2013-05-06 00:06:00,45.7,41.1,30.21,SSE,158,1.8,2.7,84,0.00,CLR,,0.00,WeatherDisplay:10.37,2013-05-06 04:06:00,
2013-05-06 00:11:00,45.7,41.1,30.21,SE,135,0.2,2.7,84,0.00,CLR,,0.00,WeatherDisplay:10.37,2013-05-06 04:11:00,
2013-05-06 00:16:00,45.5,40.9,30.21,South,180,1.4,4.6,84,0.00,CLR,,0.00,WeatherDisplay:10.37,2013-05-06 04:16:00,
2013-05-06 00:21:00,45.7,41.1,30.21,SE,135,2.4,3.5,84,0.00,CLR,,0.00,WeatherDisplay:10.37,2013-05-06 04:21:00,
2013-05-06 00:26:00,45.5,41.3,30.21,South,180,0.5,2.7,85,0.00,CLR,,0.00,WeatherDisplay:10.37,2013-05-06 04:26:00,
2013-05-06 00:31:00,45.3,41.1,30.21,East,90,1.6,2.3,85,0.00,CLR,,0.00,WeatherDisplay:10.37,2013-05-06 04:31:00,
2013-05-06 00:36:00,45.1,40.6,30.21,SSE,158,0.0,2.7,84,0.00,CLR,,0.00,WeatherDisplay:10.37,2013-05-06 04:36:00,
2013-05-06 00:41:00,45.1,40.9,30.21,East,90,0.0,2.3,85,0.00,CLR,,0.00,WeatherDisplay:10.37,2013-05-06 04:41:00,
2013-05-06 00:46:00,45.3,40.8,30.21,East,90,1.1,2.7,84,0.00,CLR,,0.00,WeatherDisplay:10.37,2013-05-06 04:46:00,
2013-05-06 00:51:00,45.3,41.1,30.21,East,90,0.5,2.7,85,0.00,CLR,,0.00,WeatherDisplay:10.37,2013-05-06 04:51:00,
2013-05-06 00:56:00,45.3,41.1,30.21,East,90,1.1,2.7,85,0.00,CLR,,0.00,WeatherDisplay:10.37,2013-05-06 04:56:00,
2013-05-06 01:01:00,45.1,40.9,30.21,ENE,68,0.0,2.7,85,0.00,CLR,,0.00,WeatherDisplay:10.37,2013-05-06 05:01:00,
2013-05-06 01:06:00,45.1,40.9,30.21,East,90,0.5,2.3,85,0.00,CLR,,0.00,WeatherDisplay:10.37,2013-05-06 05:06:00,
2013-05-06 01:11:00,45.1,40.9,30.20,ESE,112,0.5,2.7,85,0.00,CLR,,0.00,WeatherDisplay:10.37,2013-05-06 05:11:00,
2013-05-06 01:16:00,45.1,40.9,30.20,East,90,1.8,2.7,85,0.00,CLR,,0.00,WeatherDisplay:10.37,2013-05-06 05:16:00,
2013-05-06 01:21:00,45.1,40.9,30.20,ENE,68,0.9,2.7,85,0.00,CLR,,0.00,WeatherDisplay:10.37,2013-05-06 05:21:00,
2013-05-06 01:26:00,45.0,41.0,30.20,East,90,2.0,2.3,86,0.00,CLR,,0.00,WeatherDisplay:10.37,2013-05-06 05:26:00,
2013-05-06 01:31:00,45.0,40.7,30.20,ESE,112,1.1,2.7,85,0.00,CLR,,0.00,WeatherDisplay:10.37,2013-05-06 05:31:00,
2013-05-06 01:36:00,45.0,41.0,30.20,NE,45,0.5,2.7,86,0.00,CLR,,0.00,WeatherDisplay:10.37,2013-05-06 05:36:00,
2013-05-06 01:41:00,45.0,41.0,30.19,NNE,22,0.2,2.7,86,0.00,CLR,,0.00,WeatherDisplay:10.37,2013-05-06 05:41:00,
2013-05-06 01:46:00,45.0,40.7,30.19,ENE,68,1.4,2.7,85,0.00,CLR,,0.00,WeatherDisplay:10.37,2013-05-06 05:46:00,
2013-05-06 01:51:00,45.0,41.0,30.19,East,90,1.6,2.3,86,0.00,CLR,,0.00,WeatherDisplay:10.37,2013-05-06 05:51:00,
2013-05-06 01:56:00,45.0,41.0,30.19,East,90,0.5,2.7,86,0.00,CLR,,0.00,WeatherDisplay:10.37,2013-05-06 05:56:00,
2013-05-06 02:01:00,44.8,40.8,30.19,NNE,22,2.0,2.3,86,0.00,CLR,,0.00,WeatherDisplay:10.37,2013-05-06 06:01:00,
2013-05-06 02:06:00,44.8,40.8,30.19,NE,45,1.6,3.5,86,0.00,CLR,,0.00,WeatherDisplay:10.37,2013-05-06 06:06:00,
2013-05-06 02:11:00,44.8,40.8,30.19,ENE,68,1.1,4.0,86,0.00,CLR,,0.00,WeatherDisplay:10.37,2013-05-06 06:11:00,
2013-05-06 02:16:00,44.6,41.0,30.19,ESE,112,2.9,3.5,87,0.00,CLR,,0.00,WeatherDisplay:10.37,2013-05-06 06:16:00,
2013-05-06 02:21:00,44.6,41.0,30.19,East,90,1.1,4.0,87,0.00,CLR,,0.00,WeatherDisplay:10.37,2013-05-06 06:21:00,
2013-05-06 02:26:00,44.6,40.7,30.19,ESE,112,0.5,4.0,86,0.00,CLR,,0.00,WeatherDisplay:10.37,2013-05-06 06:26:00,
2013-05-06 02:31:00,44.6,40.7,30.19,ESE,112,0.7,4.0,86,0.00,CLR,,0.00,WeatherDisplay:10.37,2013-05-06 06:31:00,
2013-05-06 02:36:00,44.6,41.0,30.19,ENE,68,3.3,4.0,87,0.00,CLR,,0.00,WeatherDisplay:10.37,2013-05-06 06:36:00,
2013-05-06 02:41:00,44.4,40.8,30.19,NE,45,0.5,4.0,87,0.00,CLR,,0.00,WeatherDisplay:10.37,2013-05-06 06:41:00,
2013-05-06 02:46:00,44.4,40.8,30.19,NE,45,1.1,3.5,87,0.00,CLR,,0.00,WeatherDisplay:10.37,2013-05-06 06:46:00,
2013-05-06 02:51:00,44.4,40.8,30.19,NE,45,0.7,4.0,87,0.00,CLR,,0.00,WeatherDisplay:10.37,2013-05-06 06:51:00,
2013-05-06 02:56:00,44.4,40.8,30.19,East,90,0.7,4.0,87,0.00,CLR,,0.00,WeatherDisplay:10.37,2013-05-06 06:56:00,
2013-05-06 03:01:00,44.6,41.3,30.19,NE,45,0.5,4.0,88,0.00,CLR,,0.00,WeatherDisplay:10.37,2013-05-06 07:01:00,
2013-05-06 03:06:00,44.4,40.8,30.19,SSE,158,1.8,4.0,87,0.00,CLR,,0.00,WeatherDisplay:10.37,2013-05-06 07:06:00,
2013-05-06 03:11:00,44.4,40.8,30.19,South,180,0.7,4.0,87,0.00,CLR,,0.00,WeatherDisplay:10.37,2013-05-06 07:11:00,
2013-05-06 03:16:00,44.6,41.0,30.19,East,90,1.8,4.0,87,0.00,CLR,,0.00,WeatherDisplay:10.37,2013-05-06 07:16:00,
2013-05-06 03:21:00,44.6,41.0,30.19,NE,45,1.8,4.0,87,0.00,CLR,,0.00,WeatherDisplay:10.37,2013-05-06 07:21:00,
2013-05-06 03:26:00,44.6,41.3,30.18,North,0,1.8,3.5,88,0.00,CLR,,0.00,WeatherDisplay:10.37,2013-05-06 07:26:00,
2013-05-06 03:31:00,44.6,41.3,30.19,NE,45,0.9,4.0,88,0.00,CLR,,0.00,WeatherDisplay:10.37,2013-05-06 07:31:00,
2013-05-06 03:36:00,44.6,41.3,30.19,NNE,22,3.1,4.0,88,0.00,CLR,,0.00,WeatherDisplay:10.37,2013-05-06 07:36:00,
2013-05-06 03:41:00,44.4,41.1,30.19,NNE,22,0.7,3.5,88,0.00,CLR,,0.00,WeatherDisplay:10.37,2013-05-06 07:41:00,
2013-05-06 03:46:00,44.4,41.1,30.19,NE,45,0.7,4.0,88,0.00,CLR,,0.00,WeatherDisplay:10.37,2013-05-06 07:46:00,
2013-05-06 03:51:00,44.2,40.9,30.19,NE,45,0.7,4.0,88,0.00,CLR,,0.00,WeatherDisplay:10.37,2013-05-06 07:51:00,
2013-05-06 03:56:00,44.4,41.1,30.19,ENE,68,1.1,3.5,88,0.00,CLR,,0.00,WeatherDisplay:10.37,2013-05-06 07:56:00,
2013-05-06 04:01:00,44.4,41.1,30.18,NE,45,0.9,3.5,88,0.00,CLR,,0.00,WeatherDisplay:10.37,2013-05-06 08:01:00,
2013-05-06 04:06:00,44.4,41.1,30.19,East,90,0.5,2.3,88,0.00,CLR,,0.00,WeatherDisplay:10.37,2013-05-06 08:06:00,
2013-05-06 04:11:00,44.4,41.1,30.18,ENE,68,1.8,2.3,88,0.00,CLR,,0.00,WeatherDisplay:10.37,2013-05-06 08:11:00,
2013-05-06 04:16:00,44.4,41.1,30.18,North,0,0.5,1.3,88,0.00,CLR,,0.00,WeatherDisplay:10.37,2013-05-06 08:16:00,
2013-05-06 04:21:00,44.4,41.1,30.18,ENE,68,3.8,3.8,88,0.00,CLR,,0.00,WeatherDisplay:10.37,2013-05-06 08:21:00,
2013-05-06 04:26:00,44.4,41.1,30.18,NE,45,0.2,1.3,88,0.00,CLR,,0.00,WeatherDisplay:10.37,2013-05-06 08:26:00,
2013-05-06 04:31:00,44.2,40.9,30.18,NE,45,0.2,1.1,88,0.00,CLR,,0.00,WeatherDisplay:10.37,2013-05-06 08:31:00,
2013-05-06 04:36:00,44.4,41.1,30.19,ENE,68,0.5,1.3,88,0.00,CLR,,0.00,WeatherDisplay:10.37,2013-05-06 08:36:00,
2013-05-06 04:41:00,44.2,40.9,30.19,ENE,68,2.0,2.3,88,0.00,CLR,,0.00,WeatherDisplay:10.37,2013-05-06 08:41:00,
2013-05-06 04:46:00,44.2,40.9,30.19,ENE,68,2.0,2.3,88,0.00,CLR,,0.00,WeatherDisplay:10.37,2013-05-06 08:46:00,
2013-05-06 04:51:00,44.4,41.1,30.18,SSE,158,0.5,1.3,88,0.00,CLR,,0.00,WeatherDisplay:10.37,2013-05-06 08:51:00,
2013-05-06 04:56:00,44.4,41.1,30.19,ESE,112,0.9,2.3,88,0.00,CLR,,0.00,WeatherDisplay:10.37,2013-05-06 08:56:00,
2013-05-06 05:01:00,44.4,41.1,30.19,ESE,112,1.1,1.3,88,0.00,CLR,,0.00,WeatherDisplay:10.37,2013-05-06 09:01:00,
2013-05-06 05:06:00,44.4,41.1,30.19,SE,135,1.8,2.3,88,0.00,CLR,,0.00,WeatherDisplay:10.37,2013-05-06 09:06:00,
2013-05-06 05:11:00,44.4,41.1,30.19,SE,135,1.8,2.3,88,0.00,CLR,,0.00,WeatherDisplay:10.37,2013-05-06 09:11:00,
2013-05-06 05:16:00,44.4,41.1,30.19,ESE,112,0.5,2.3,88,0.00,CLR,,0.00,WeatherDisplay:10.37,2013-05-06 09:16:00,
2013-05-06 05:21:00,44.2,40.9,30.20,ESE,112,0.0,1.3,88,0.00,CLR,,0.00,WeatherDisplay:10.37,2013-05-06 09:21:00,
2013-05-06 05:26:00,44.2,40.9,30.20,NE,45,0.7,2.3,88,0.00,CLR,,0.00,WeatherDisplay:10.37,2013-05-06 09:26:00,
2013-05-06 05:31:00,44.2,40.9,30.20,ENE,68,2.4,2.4,88,0.00,CLR,,0.00,WeatherDisplay:10.37,2013-05-06 09:31:00,
2013-05-06 05:36:00,44.1,40.7,30.21,NNE,22,1.8,1.8,88,0.00,CLR,,0.00,WeatherDisplay:10.37,2013-05-06 09:36:00,
2013-05-06 05:41:00,44.1,40.7,30.20,NE,45,1.8,2.3,88,0.00,CLR,,0.00,WeatherDisplay:10.37,2013-05-06 09:41:00,
2013-05-06 05:46:00,44.1,40.7,30.20,East,90,0.5,2.3,88,0.00,CLR,,0.00,WeatherDisplay:10.37,2013-05-06 09:46:00,
2013-05-06 05:51:00,44.1,40.7,30.21,ENE,68,0.9,1.3,88,0.00,CLR,,0.00,WeatherDisplay:10.37,2013-05-06 09:51:00,
2013-05-06 05:56:00,44.1,41.0,30.21,ENE,68,1.1,2.3,89,0.00,CLR,,0.00,WeatherDisplay:10.37,2013-05-06 09:56:00,
2013-05-06 06:01:00,44.1,41.0,30.21,ENE,68,0.5,1.3,89,0.00,CLR,,0.00,WeatherDisplay:10.37,2013-05-06 10:01:00,
2013-05-06 06:06:00,44.1,41.0,30.21,ENE,68,0.5,1.3,89,0.00,CLR,,0.00,WeatherDisplay:10.37,2013-05-06 10:06:00,
2013-05-06 06:11:00,44.1,41.0,30.21,ENE,68,0.5,1.3,89,0.00,CLR,,0.00,WeatherDisplay:10.37,2013-05-06 10:11:00,
2013-05-06 06:16:00,44.2,40.9,30.21,ENE,68,0.7,1.3,88,0.00,CLR,,0.00,WeatherDisplay:10.37,2013-05-06 10:16:00,
2013-05-06 06:21:00,44.2,41.2,30.21,ENE,68,0.7,1.3,89,0.00,CLR,,0.00,WeatherDisplay:10.37,2013-05-06 10:21:00,
2013-05-06 06:26:00,44.2,41.2,30.21,ENE,68,0.7,1.3,89,0.00,CLR,,0.00,WeatherDisplay:10.37,2013-05-06 10:26:00,
2013-05-06 06:31:00,44.4,41.4,30.22,ENE,68,0.7,1.3,89,0.00,CLR,,0.00,WeatherDisplay:10.37,2013-05-06 10:31:00,
2013-05-06 06:36:00,44.4,41.1,30.22,ENE,68,0.7,1.3,88,0.00,CLR,,0.00,WeatherDisplay:10.37,2013-05-06 10:36:00,
2013-05-06 06:41:00,44.4,41.1,30.22,ENE,68,0.7,1.1,88,0.00,CLR,,0.00,WeatherDisplay:10.37,2013-05-06 10:41:00,
2013-05-06 06:46:00,44.4,41.1,30.22,ENE,68,0.7,1.3,88,0.00,CLR,,0.00,WeatherDisplay:10.37,2013-05-06 10:46:00,
2013-05-06 06:51:00,44.6,41.3,30.22,ENE,68,0.7,1.3,88,0.00,CLR,,0.00,WeatherDisplay:10.37,2013-05-06 10:51:00,
2013-05-06 06:56:00,44.6,41.3,30.22,ENE,68,0.7,1.1,88,0.00,CLR,,0.00,WeatherDisplay:10.37,2013-05-06 10:56:00,
2013-05-06 07:01:00,44.8,41.4,30.22,ENE,68,0.7,1.3,88,0.00,CLR,,0.00,WeatherDisplay:10.37,2013-05-06 11:01:00,
2013-05-06 07:06:00,45.0,41.6,30.22,ENE,68,0.7,1.3,88,0.00,CLR,,0.00,WeatherDisplay:10.37,2013-05-06 11:06:00,
2013-05-06 07:11:00,45.1,41.8,30.22,ENE,68,0.7,1.3,88,0.00,CLR,,0.00,WeatherDisplay:10.37,2013-05-06 11:11:00,
2013-05-06 07:16:00,45.3,42.0,30.22,ENE,68,0.7,1.3,88,0.00,CLR,,0.00,WeatherDisplay:10.37,2013-05-06 11:16:00,
2013-05-06 07:21:00,45.3,42.0,30.22,ENE,68,0.7,1.3,88,0.00,CLR,,0.00,WeatherDisplay:10.37,2013-05-06 11:21:00,
2013-05-06 07:26:00,45.5,42.2,30.22,ENE,68,0.7,1.3,88,0.00,CLR,,0.00,WeatherDisplay:10.37,2013-05-06 11:26:00,
2013-05-06 07:31:00,45.7,42.3,30.23,ENE,68,0.7,1.3,88,0.00,CLR,,0.00,WeatherDisplay:10.37,2013-05-06 11:31:00,
2013-05-06 07:36:00,45.7,42.3,30.23,ENE,68,0.7,1.3,88,0.00,CLR,,0.00,WeatherDisplay:10.37,2013-05-06 11:36:00,
2013-05-06 07:41:00,46.2,42.9,30.23,East,90,3.3,3.3,88,0.00,CLR,,0.00,WeatherDisplay:10.37,2013-05-06 11:41:00,
2013-05-06 07:46:00,46.4,43.0,30.23,ESE,112,1.8,2.3,88,0.00,CLR,,0.00,WeatherDisplay:10.37,2013-05-06 11:46:00,
2013-05-06 07:51:00,46.4,43.0,30.23,ESE,112,1.8,1.8,88,0.00,CLR,,0.00,WeatherDisplay:10.37,2013-05-06 11:51:00,
2013-05-06 07:56:00,46.6,43.2,30.23,SE,135,0.7,1.3,88,0.00,CLR,,0.00,WeatherDisplay:10.37,2013-05-06 11:56:00,
2013-05-06 08:01:00,46.8,43.1,30.23,SE,135,0.2,2.7,87,0.00,CLR,,0.00,WeatherDisplay:10.37,2013-05-06 12:01:00,
2013-05-06 08:06:00,47.1,43.4,30.23,NNE,22,0.2,2.7,87,0.00,CLR,,0.00,WeatherDisplay:10.37,2013-05-06 12:06:00,
2013-05-06 08:11:00,47.3,43.6,30.23,SE,135,1.1,2.7,87,0.00,CLR,,0.00,WeatherDisplay:10.37,2013-05-06 12:11:00,
2013-05-06 08:16:00,47.3,43.3,30.22,NNE,22,0.7,2.7,86,0.00,CLR,,0.00,WeatherDisplay:10.37,2013-05-06 12:16:00,
2013-05-06 08:21:00,47.7,43.7,30.22,ESE,112,1.8,2.7,86,0.00,CLR,,0.00,WeatherDisplay:10.37,2013-05-06 12:21:00,
2013-05-06 08:26:00,47.8,43.5,30.23,ESE,112,1.1,2.7,85,0.00,CLR,,0.00,WeatherDisplay:10.37,2013-05-06 12:26:00,
2013-05-06 08:31:00,48.0,43.7,30.23,ENE,68,1.6,3.5,85,0.00,CLR,,0.00,WeatherDisplay:10.37,2013-05-06 12:31:00,
2013-05-06 08:36:00,48.2,43.9,30.23,ESE,112,1.1,2.7,85,0.00,CLR,,0.00,WeatherDisplay:10.37,2013-05-06 12:36:00,
2013-05-06 08:41:00,48.6,44.3,30.23,SE,135,3.1,3.1,85,0.00,CLR,,0.00,WeatherDisplay:10.37,2013-05-06 12:41:00,
2013-05-06 08:46:00,48.6,44.3,30.23,SE,135,1.1,2.7,85,0.00,CLR,,0.00,WeatherDisplay:10.37,2013-05-06 12:46:00,
2013-05-06 08:51:00,48.9,44.3,30.22,East,90,0.0,2.7,84,0.00,CLR,,0.00,WeatherDisplay:10.37,2013-05-06 12:51:00,
2013-05-06 08:56:00,49.3,44.6,30.23,East,90,2.0,3.5,84,0.00,CLR,,0.00,WeatherDisplay:10.37,2013-05-06 12:56:00,
2013-05-06 09:01:00,49.6,44.7,30.23,North,0,1.8,2.7,83,0.00,CLR,,0.00,WeatherDisplay:10.37,2013-05-06 13:01:00,
2013-05-06 09:06:00,49.8,45.2,30.22,ESE,112,1.4,2.7,84,0.00,CLR,,0.00,WeatherDisplay:10.37,2013-05-06 13:06:00,
2013-05-06 09:11:00,50.5,45.9,30.22,ENE,68,2.9,2.9,84,0.00,CLR,,0.00,WeatherDisplay:10.37,2013-05-06 13:11:00,
2013-05-06 09:16:00,51.3,46.0,30.22,NNE,22,1.8,2.7,82,0.00,CLR,,0.00,WeatherDisplay:10.37,2013-05-06 13:16:00,
2013-05-06 09:21:00,52.0,46.7,30.22,NNE,22,1.8,2.7,82,0.00,CLR,,0.00,WeatherDisplay:10.37,2013-05-06 13:21:00,
2013-05-06 09:26:00,52.9,46.9,30.22,East,90,2.9,4.6,80,0.00,CLR,,0.00,WeatherDisplay:10.37,2013-05-06 13:26:00,
2013-05-06 09:31:00,53.8,47.4,30.22,East,90,1.6,2.7,79,0.00,CLR,,0.00,WeatherDisplay:10.37,2013-05-06 13:31:00,
2013-05-06 09:36:00,54.3,47.9,30.22,East,90,3.6,3.6,79,0.00,CLR,,0.00,WeatherDisplay:10.37,2013-05-06 13:36:00,
2013-05-06 09:41:00,55.0,48.3,30.22,East,90,0.5,2.7,78,0.00,CLR,,0.00,WeatherDisplay:10.37,2013-05-06 13:41:00,
2013-05-06 09:46:00,55.8,49.0,30.22,SE,135,3.3,3.5,78,0.00,CLR,,0.00,WeatherDisplay:10.37,2013-05-06 13:46:00,
2013-05-06 09:51:00,55.9,48.8,30.22,ESE,112,1.1,3.5,77,0.00,CLR,,0.00,WeatherDisplay:10.37,2013-05-06 13:51:00,
2013-05-06 09:56:00,56.5,49.7,30.22,SW,225,0.9,3.5,78,0.00,CLR,,0.00,WeatherDisplay:10.37,2013-05-06 13:56:00,
2013-05-06 10:01:00,57.2,49.7,30.22,SE,135,1.8,2.7,76,0.00,CLR,,0.00,WeatherDisplay:10.37,2013-05-06 14:01:00,
2013-05-06 10:06:00,57.9,49.7,30.23,South,180,3.3,5.8,74,0.00,CLR,,0.00,WeatherDisplay:10.37,2013-05-06 14:06:00,
2013-05-06 10:11:00,57.9,49.3,30.23,ESE,112,2.6,4.6,73,0.00,CLR,,0.00,WeatherDisplay:10.37,2013-05-06 14:11:00,
2013-05-06 10:16:00,57.6,49.0,30.23,SSE,158,5.9,5.9,73,0.00,CLR,,0.00,WeatherDisplay:10.37,2013-05-06 14:16:00,
2013-05-06 10:21:00,57.2,48.6,30.23,ESE,112,3.3,4.6,73,0.00,CLR,,0.00,WeatherDisplay:10.37,2013-05-06 14:21:00,
2013-05-06 10:26:00,56.8,48.3,30.23,SSE,158,3.8,3.8,73,0.00,CLR,,0.00,WeatherDisplay:10.37,2013-05-06 14:26:00,
2013-05-06 10:31:00,57.0,48.8,30.23,SE,135,1.6,2.7,74,0.00,CLR,,0.00,WeatherDisplay:10.37,2013-05-06 14:31:00,
2013-05-06 10:36:00,57.2,49.0,30.23,SE,135,3.1,3.5,74,0.00,CLR,,0.00,WeatherDisplay:10.37,2013-05-06 14:36:00,
2013-05-06 10:41:00,57.6,49.0,30.23,SSE,158,2.2,2.3,73,0.00,CLR,,0.00,WeatherDisplay:10.37,2013-05-06 14:41:00,
2013-05-06 10:46:00,57.9,49.3,30.23,SW,225,2.9,3.5,73,0.00,CLR,,0.00,WeatherDisplay:10.37,2013-05-06 14:46:00,
2013-05-06 10:51:00,58.3,49.7,30.23,SSE,158,2.4,4.6,73,0.00,CLR,,0.00,WeatherDisplay:10.37,2013-05-06 14:51:00,
2013-05-06 10:56:00,58.6,49.6,30.23,South,180,1.1,2.7,72,0.00,CLR,,0.00,WeatherDisplay:10.37,2013-05-06 14:56:00,
2013-05-06 11:01:00,58.6,48.9,30.23,SSE,158,3.1,3.1,70,0.00,CLR,,0.00,WeatherDisplay:10.37,2013-05-06 15:01:00,
2013-05-06 11:06:00,59.0,49.6,30.23,SE,135,1.1,2.7,71,0.00,CLR,,0.00,WeatherDisplay:10.37,2013-05-06 15:06:00,
2013-05-06 11:11:00,59.4,50.0,30.22,SSW,202,1.8,2.7,71,0.00,CLR,,0.00,WeatherDisplay:10.37,2013-05-06 15:11:00,
2013-05-06 11:16:00,60.1,50.6,30.22,SSW,202,1.8,2.7,71,0.00,CLR,,0.00,WeatherDisplay:10.37,2013-05-06 15:16:00,
2013-05-06 11:21:00,60.8,51.0,30.22,SE,135,1.1,2.7,70,0.00,CLR,,0.00,WeatherDisplay:10.37,2013-05-06 15:21:00,
2013-05-06 11:26:00,61.2,51.3,30.22,SE,135,2.6,2.6,70,0.00,CLR,,0.00,WeatherDisplay:10.37,2013-05-06 15:26:00,
2013-05-06 11:31:00,61.7,51.4,30.22,South,180,2.9,4.6,69,0.00,CLR,,0.00,WeatherDisplay:10.37,2013-05-06 15:31:00,
2013-05-06 11:36:00,61.5,51.3,30.22,SSW,202,2.9,2.9,69,0.00,CLR,,0.00,WeatherDisplay:10.37,2013-05-06 15:36:00,
2013-05-06 11:41:00,60.8,49.8,30.22,South,180,6.4,6.9,67,0.00,CLR,,0.00,WeatherDisplay:10.37,2013-05-06 15:41:00,
2013-05-06 11:46:00,60.6,50.0,30.22,SSE,158,2.0,4.6,68,0.00,CLR,,0.00,WeatherDisplay:10.37,2013-05-06 15:46:00,
2013-05-06 11:51:00,60.8,50.2,30.22,SSE,158,3.1,3.5,68,0.00,CLR,,0.00,WeatherDisplay:10.37,2013-05-06 15:51:00,
2013-05-06 11:56:00,60.8,50.6,30.21,SSE,158,2.0,2.7,69,0.00,CLR,,0.00,WeatherDisplay:10.37,2013-05-06 15:56:00,
2013-05-06 12:01:00,60.8,49.4,30.21,ESE,112,2.4,2.4,66,0.00,CLR,,0.00,WeatherDisplay:10.37,2013-05-06 16:01:00,
2013-05-06 12:06:00,60.8,49.8,30.21,SSE,158,4.0,4.0,67,0.00,CLR,,0.00,WeatherDisplay:10.37,2013-05-06 16:06:00,
2013-05-06 12:11:00,61.3,50.7,30.21,SSE,158,2.6,2.6,68,0.00,CLR,,0.00,WeatherDisplay:10.37,2013-05-06 16:11:00,
2013-05-06 12:16:00,62.4,51.7,30.21,South,180,3.1,3.5,68,0.00,CLR,,0.00,WeatherDisplay:10.37,2013-05-06 16:16:00,
2013-05-06 12:21:00,62.8,51.7,30.21,South,180,4.9,4.9,67,0.00,CLR,,0.00,WeatherDisplay:10.37,2013-05-06 16:21:00,
2013-05-06 12:26:00,62.8,51.7,30.21,SE,135,3.8,4.6,67,0.00,CLR,,0.00,WeatherDisplay:10.37,2013-05-06 16:26:00,
2013-05-06 12:31:00,63.0,51.4,30.21,SSE,158,4.0,4.0,66,0.00,CLR,,0.00,WeatherDisplay:10.37,2013-05-06 16:31:00,
2013-05-06 12:36:00,62.8,51.2,30.21,SE,135,4.3,4.6,66,0.00,CLR,,0.00,WeatherDisplay:10.37,2013-05-06 16:36:00,
2013-05-06 12:41:00,63.0,51.0,30.21,SE,135,6.0,6.0,65,0.00,CLR,,0.00,WeatherDisplay:10.37,2013-05-06 16:41:00,
2013-05-06 12:46:00,63.0,51.0,30.20,East,90,5.4,5.4,65,0.00,CLR,,0.00,WeatherDisplay:10.37,2013-05-06 16:46:00,
2013-05-06 12:51:00,63.0,51.0,30.20,SE,135,5.4,5.8,65,0.00,CLR,,0.00,WeatherDisplay:10.37,2013-05-06 16:51:00,
2013-05-06 12:56:00,62.6,50.7,30.20,SSE,158,4.0,4.6,65,0.00,CLR,,0.00,WeatherDisplay:10.37,2013-05-06 16:56:00,
2013-05-06 13:01:00,62.6,49.8,30.20,East,90,2.6,3.5,63,0.00,CLR,,0.00,WeatherDisplay:10.37,2013-05-06 17:01:00,
2013-05-06 13:06:00,62.4,50.5,30.20,ESE,112,4.7,4.7,65,0.00,CLR,,0.00,WeatherDisplay:10.37,2013-05-06 17:06:00,
2013-05-06 13:11:00,62.6,51.1,30.19,SSE,158,1.1,3.5,66,0.00,CLR,,0.00,WeatherDisplay:10.37,2013-05-06 17:11:00,
2013-05-06 13:16:00,62.8,51.2,30.19,South,180,1.4,4.6,66,0.00,CLR,,0.00,WeatherDisplay:10.37,2013-05-06 17:16:00,
2013-05-06 13:21:00,63.3,50.9,30.19,East,90,2.6,3.5,64,0.00,CLR,,0.00,WeatherDisplay:10.37,2013-05-06 17:21:00,
2013-05-06 13:26:00,63.7,51.7,30.19,SE,135,4.9,4.9,65,0.00,CLR,,0.00,WeatherDisplay:10.37,2013-05-06 17:26:00,
2013-05-06 13:31:00,64.4,52.4,30.19,SE,135,2.6,2.6,65,0.00,CLR,,0.00,WeatherDisplay:10.37,2013-05-06 17:31:00,
2013-05-06 13:36:00,64.0,50.8,30.19,ESE,112,4.0,4.6,62,0.00,CLR,,0.00,WeatherDisplay:10.37,2013-05-06 17:36:00,
2013-05-06 13:41:00,64.0,51.6,30.19,SW,225,5.4,5.4,64,0.00,CLR,,0.00,WeatherDisplay:10.37,2013-05-06 17:41:00,
2013-05-06 13:46:00,64.4,51.5,30.19,South,180,4.0,4.6,63,0.00,CLR,,0.00,WeatherDisplay:10.37,2013-05-06 17:46:00,
2013-05-06 13:51:00,64.2,51.8,30.19,ESE,112,5.2,5.8,64,0.00,CLR,,0.00,WeatherDisplay:10.37,2013-05-06 17:51:00,
2013-05-06 13:56:00,64.0,50.8,30.19,SW,225,3.8,4.6,62,0.00,CLR,,0.00,WeatherDisplay:10.37,2013-05-06 17:56:00,
2013-05-06 14:01:00,64.0,51.6,30.19,South,180,2.2,4.6,64,0.00,CLR,,0.00,WeatherDisplay:10.37,2013-05-06 18:01:00,
2013-05-06 14:06:00,64.2,51.4,30.19,South,180,1.8,2.7,63,0.00,CLR,,0.00,WeatherDisplay:10.37,2013-05-06 18:06:00,
2013-05-06 14:11:00,64.2,50.9,30.19,SSE,158,3.6,3.6,62,0.00,CLR,,0.00,WeatherDisplay:10.37,2013-05-06 18:11:00,
2013-05-06 14:16:00,63.9,50.6,30.18,ESE,112,4.7,4.7,62,0.00,CLR,,0.00,WeatherDisplay:10.37,2013-05-06 18:16:00,
2013-05-06 14:21:00,63.1,50.3,30.18,ESE,112,4.0,5.8,63,0.00,CLR,,0.00,WeatherDisplay:10.37,2013-05-06 18:21:00,
2013-05-06 14:26:00,62.6,50.2,30.18,SE,135,3.1,5.8,64,0.00,CLR,,0.00,WeatherDisplay:10.37,2013-05-06 18:26:00,
2013-05-06 14:31:00,62.4,50.1,30.18,SSW,202,1.6,4.6,64,0.00,CLR,,0.00,WeatherDisplay:10.37,2013-05-06 18:31:00,
2013-05-06 14:36:00,62.1,49.7,30.18,SE,135,2.9,4.6,64,0.00,CLR,,0.00,WeatherDisplay:10.37,2013-05-06 18:36:00,
2013-05-06 14:41:00,61.9,50.0,30.17,SSE,158,2.4,2.7,65,0.00,CLR,,0.00,WeatherDisplay:10.37,2013-05-06 18:41:00,
2013-05-06 14:46:00,62.2,50.3,30.17,SE,135,2.6,2.7,65,0.00,CLR,,0.00,WeatherDisplay:10.37,2013-05-06 18:46:00,
2013-05-06 14:51:00,62.8,50.8,30.17,SSE,158,1.4,2.7,65,0.00,CLR,,0.00,WeatherDisplay:10.37,2013-05-06 18:51:00,
2013-05-06 14:56:00,63.3,50.9,30.17,South,180,2.6,5.8,64,0.00,CLR,,0.00,WeatherDisplay:10.37,2013-05-06 18:56:00,
2013-05-06 15:01:00,63.7,51.7,30.16,South,180,3.6,4.6,65,0.00,CLR,,0.00,WeatherDisplay:10.37,2013-05-06 19:01:00,
2013-05-06 15:06:00,64.0,51.6,30.16,SSW,202,3.1,3.1,64,0.00,CLR,,0.00,WeatherDisplay:10.37,2013-05-06 19:06:00,
2013-05-06 15:11:00,63.9,51.0,30.16,SSE,158,3.3,3.5,63,0.00,CLR,,0.00,WeatherDisplay:10.37,2013-05-06 19:11:00,
2013-05-06 15:16:00,63.5,51.1,30.16,SE,135,1.6,3.5,64,0.00,CLR,,0.00,WeatherDisplay:10.37,2013-05-06 19:16:00,
2013-05-06 15:21:00,63.5,51.5,30.16,South,180,3.1,4.6,65,0.00,CLR,,0.00,WeatherDisplay:10.37,2013-05-06 19:21:00,
2013-05-06 15:26:00,63.5,51.1,30.16,SSE,158,3.6,4.6,64,0.00,CLR,,0.00,WeatherDisplay:10.37,2013-05-06 19:26:00,
2013-05-06 15:31:00,63.1,50.8,30.16,SSE,158,4.7,4.7,64,0.00,CLR,,0.00,WeatherDisplay:10.37,2013-05-06 19:31:00,
2013-05-06 15:36:00,62.6,50.7,30.15,SSE,158,1.1,4.6,65,0.00,CLR,,0.00,WeatherDisplay:10.37,2013-05-06 19:36:00,
2013-05-06 15:41:00,62.4,50.9,30.15,South,180,1.1,2.7,66,0.00,CLR,,0.00,WeatherDisplay:10.37,2013-05-06 19:41:00,
2013-05-06 15:46:00,62.8,50.8,30.15,SSE,158,4.0,4.0,65,0.00,CLR,,0.00,WeatherDisplay:10.37,2013-05-06 19:46:00,
2013-05-06 15:51:00,62.6,50.7,30.15,South,180,3.8,4.6,65,0.00,CLR,,0.00,WeatherDisplay:10.37,2013-05-06 19:51:00,
2013-05-06 15:56:00,62.6,50.7,30.15,SSE,158,5.4,5.4,65,0.00,CLR,,0.00,WeatherDisplay:10.37,2013-05-06 19:56:00,
2013-05-06 16:01:00,62.6,50.7,30.15,SSE,158,3.8,4.6,65,0.00,CLR,,0.00,WeatherDisplay:10.37,2013-05-06 20:01:00,
2013-05-06 16:06:00,61.9,50.0,30.15,SE,135,5.4,6.9,65,0.00,CLR,,0.00,WeatherDisplay:10.37,2013-05-06 20:06:00,
2013-05-06 16:11:00,61.3,49.5,30.15,SSE,158,7.6,8.1,65,0.00,CLR,,0.00,WeatherDisplay:10.37,2013-05-06 20:11:00,
2013-05-06 16:16:00,60.8,49.4,30.15,SSE,158,1.6,4.6,66,0.00,CLR,,0.00,WeatherDisplay:10.37,2013-05-06 20:16:00,
2013-05-06 16:21:00,60.6,49.2,30.15,SE,135,4.5,8.1,66,0.00,CLR,,0.00,WeatherDisplay:10.37,2013-05-06 20:21:00,
2013-05-06 16:26:00,60.1,48.7,30.15,ESE,112,5.4,5.8,66,0.00,CLR,,0.00,WeatherDisplay:10.37,2013-05-06 20:26:00,
2013-05-06 16:31:00,59.0,48.4,30.15,SSW,202,6.7,9.2,68,0.00,CLR,,0.00,WeatherDisplay:10.37,2013-05-06 20:31:00,
2013-05-06 16:36:00,58.1,48.0,30.15,SSE,158,4.0,4.6,69,0.00,CLR,,0.00,WeatherDisplay:10.37,2013-05-06 20:36:00,
2013-05-06 16:41:00,58.1,48.4,30.15,South,180,5.6,5.6,70,0.00,CLR,,0.00,WeatherDisplay:10.37,2013-05-06 20:41:00,
2013-05-06 16:46:00,58.1,48.4,30.15,SE,135,1.6,2.7,70,0.00,CLR,,0.00,WeatherDisplay:10.37,2013-05-06 20:46:00,
2013-05-06 16:51:00,58.3,48.2,30.15,NE,45,0.9,2.7,69,0.00,CLR,,0.00,WeatherDisplay:10.37,2013-05-06 20:51:00,
2013-05-06 16:56:00,59.5,49.0,30.14,SE,135,2.9,5.8,68,0.00,CLR,,0.00,WeatherDisplay:10.37,2013-05-06 20:56:00,
2013-05-06 17:01:00,61.9,50.4,30.14,NE,45,0.5,2.7,66,0.00,CLR,,0.00,WeatherDisplay:10.37,2013-05-06 21:01:00,
2013-05-06 17:06:00,62.2,49.5,30.14,ESE,112,3.3,3.5,63,0.00,CLR,,0.00,WeatherDisplay:10.37,2013-05-06 21:06:00,
2013-05-06 17:11:00,61.0,49.1,30.14,South,180,3.3,3.5,65,0.00,CLR,,0.00,WeatherDisplay:10.37,2013-05-06 21:11:00,
2013-05-06 17:16:00,59.7,47.9,30.14,SSE,158,2.4,2.7,65,0.00,CLR,,0.00,WeatherDisplay:10.37,2013-05-06 21:16:00,
2013-05-06 17:21:00,58.6,47.7,30.14,SSE,158,0.7,4.6,67,0.00,CLR,,0.00,WeatherDisplay:10.37,2013-05-06 21:21:00,
2013-05-06 17:26:00,57.7,47.6,30.14,SSE,158,3.1,3.1,69,0.00,CLR,,0.00,WeatherDisplay:10.37,2013-05-06 21:26:00,
2013-05-06 17:31:00,56.5,46.4,30.14,ESE,112,1.8,2.7,69,0.00,CLR,,0.00,WeatherDisplay:10.37,2013-05-06 21:31:00,
2013-05-06 17:36:00,56.5,47.6,30.14,SW,225,1.1,3.5,72,0.00,CLR,,0.00,WeatherDisplay:10.37,2013-05-06 21:36:00,
2013-05-06 17:41:00,55.9,47.4,30.14,SSE,158,4.5,4.6,73,0.00,CLR,,0.00,WeatherDisplay:10.37,2013-05-06 21:41:00,
2013-05-06 17:46:00,55.2,46.7,30.13,South,180,1.8,2.3,73,0.00,CLR,,0.00,WeatherDisplay:10.37,2013-05-06 21:46:00,
2013-05-06 17:51:00,54.9,46.4,30.13,SSE,158,1.4,3.5,73,0.00,CLR,,0.00,WeatherDisplay:10.37,2013-05-06 21:51:00,
2013-05-06 17:56:00,54.7,47.3,30.14,SE,135,3.3,3.3,76,0.00,CLR,,0.00,WeatherDisplay:10.37,2013-05-06 21:56:00,
2013-05-06 18:01:00,54.3,46.6,30.13,SSE,158,1.8,2.7,75,0.00,CLR,,0.00,WeatherDisplay:10.37,2013-05-06 22:01:00,
2013-05-06 18:06:00,54.0,46.2,30.13,South,180,2.4,3.5,75,0.00,CLR,,0.00,WeatherDisplay:10.37,2013-05-06 22:06:00,
2013-05-06 18:11:00,53.6,46.2,30.13,WSW,248,1.8,4.6,76,0.00,CLR,,0.00,WeatherDisplay:10.37,2013-05-06 22:11:00,
2013-05-06 18:16:00,53.6,46.6,30.13,SE,135,2.0,3.5,77,0.00,CLR,,0.00,WeatherDisplay:10.37,2013-05-06 22:16:00,
2013-05-06 18:21:00,53.2,46.6,30.13,SSE,158,4.7,5.8,78,0.00,CLR,,0.00,WeatherDisplay:10.37,2013-05-06 22:21:00,
2013-05-06 18:26:00,52.9,46.2,30.13,SSW,202,4.5,4.6,78,0.00,CLR,,0.00,WeatherDisplay:10.37,2013-05-06 22:26:00,
2013-05-06 18:31:00,52.9,46.5,30.13,SE,135,4.7,4.7,79,0.00,CLR,,0.00,WeatherDisplay:10.37,2013-05-06 22:31:00,
2013-05-06 18:36:00,52.7,46.0,30.13,SSE,158,2.0,4.6,78,0.00,CLR,,0.00,WeatherDisplay:10.37,2013-05-06 22:36:00,
2013-05-06 18:41:00,52.7,46.0,30.13,SSE,158,4.7,4.7,78,0.00,CLR,,0.00,WeatherDisplay:10.37,2013-05-06 22:41:00,
2013-05-06 18:46:00,52.5,45.9,30.13,South,180,2.6,3.5,78,0.00,CLR,,0.00,WeatherDisplay:10.37,2013-05-06 22:46:00,
2013-05-06 18:51:00,52.2,45.8,30.13,SE,135,1.1,3.5,79,0.00,CLR,,0.00,WeatherDisplay:10.37,2013-05-06 22:51:00,
2013-05-06 18:56:00,52.0,45.7,30.13,South,180,2.2,3.5,79,0.00,CLR,,0.00,WeatherDisplay:10.37,2013-05-06 22:56:00,
2013-05-06 19:01:00,51.6,45.7,30.13,South,180,2.2,3.5,80,0.00,CLR,,0.00,WeatherDisplay:10.37,2013-05-06 23:01:00,
2013-05-06 19:06:00,51.4,45.5,30.13,SSE,158,1.4,2.7,80,0.00,CLR,,0.00,WeatherDisplay:10.37,2013-05-06 23:06:00,
2013-05-06 19:11:00,51.3,45.3,30.13,SE,135,1.1,2.7,80,0.00,CLR,,0.00,WeatherDisplay:10.37,2013-05-06 23:11:00,
2013-05-06 19:16:00,51.3,46.0,30.13,South,180,2.9,2.9,82,0.00,CLR,,0.00,WeatherDisplay:10.37,2013-05-06 23:16:00,
2013-05-06 19:21:00,51.1,45.8,30.13,SSE,158,3.3,5.8,82,0.00,CLR,,0.00,WeatherDisplay:10.37,2013-05-06 23:21:00,
2013-05-06 19:26:00,50.9,45.9,30.14,SE,135,3.3,3.3,83,0.00,CLR,,0.00,WeatherDisplay:10.37,2013-05-06 23:26:00,
2013-05-06 19:31:00,50.7,46.1,30.13,ESE,112,1.1,5.8,84,0.00,CLR,,0.00,WeatherDisplay:10.37,2013-05-06 23:31:00,
2013-05-06 19:36:00,50.5,46.2,30.13,SSE,158,2.2,3.5,85,0.00,CLR,,0.00,WeatherDisplay:10.37,2013-05-06 23:36:00,
2013-05-06 19:41:00,50.4,46.0,30.14,SE,135,4.5,5.8,85,0.00,CLR,,0.00,WeatherDisplay:10.37,2013-05-06 23:41:00,
2013-05-06 19:46:00,50.2,45.8,30.13,SSW,202,1.8,4.6,85,0.00,CLR,,0.00,WeatherDisplay:10.37,2013-05-06 23:46:00,
2013-05-06 19:51:00,50.0,46.0,30.14,SSE,158,2.0,2.7,86,0.00,CLR,,0.00,WeatherDisplay:10.37,2013-05-06 23:51:00,
2013-05-06 19:56:00,49.8,45.8,30.14,SSE,158,5.2,5.2,86,0.00,CLR,,0.00,WeatherDisplay:10.37,2013-05-06 23:56:00,
2013-05-06 20:01:00,49.6,45.6,30.14,South,180,4.3,4.3,86,0.00,CLR,,0.00,WeatherDisplay:10.37,2013-05-07 00:01:00,
2013-05-06 20:06:00,49.5,45.1,30.14,SE,135,1.6,2.7,85,0.00,CLR,,0.00,WeatherDisplay:10.37,2013-05-07 00:06:00,
2013-05-06 20:11:00,49.3,45.3,30.14,SSE,158,2.2,2.3,86,0.00,CLR,,0.00,WeatherDisplay:10.37,2013-05-07 00:11:00,
2013-05-06 20:16:00,49.3,45.0,30.14,SSE,158,3.3,3.5,85,0.00,CLR,,0.00,WeatherDisplay:10.37,2013-05-07 00:16:00,
2013-05-06 20:21:00,49.1,44.8,30.14,SE,135,0.5,4.6,85,0.00,CLR,,0.00,WeatherDisplay:10.37,2013-05-07 00:21:00,
2013-05-06 20:26:00,48.9,44.6,30.14,SE,135,4.7,5.8,85,0.00,CLR,,0.00,WeatherDisplay:10.37,2013-05-07 00:26:00,
2013-05-06 20:31:00,48.9,44.6,30.14,SSE,158,3.6,3.6,85,0.00,CLR,,0.00,WeatherDisplay:10.37,2013-05-07 00:31:00,
2013-05-06 20:36:00,48.7,44.7,30.14,SSE,158,0.7,4.6,86,0.00,CLR,,0.00,WeatherDisplay:10.37,2013-05-07 00:36:00,
2013-05-06 20:41:00,48.6,44.3,30.14,South,180,1.4,2.7,85,0.00,CLR,,0.00,WeatherDisplay:10.37,2013-05-07 00:41:00,
2013-05-06 20:46:00,48.6,44.3,30.14,SE,135,1.8,2.7,85,0.00,CLR,,0.00,WeatherDisplay:10.37,2013-05-07 00:46:00,
2013-05-06 20:51:00,48.6,44.3,30.14,South,180,3.3,3.3,85,0.00,CLR,,0.00,WeatherDisplay:10.37,2013-05-07 00:51:00,
2013-05-06 20:56:00,48.6,44.6,30.14,WSW,248,0.7,2.7,86,0.00,CLR,,0.00,WeatherDisplay:10.37,2013-05-07 00:56:00,
2013-05-06 21:01:00,48.6,44.9,30.15,SSE,158,3.3,3.5,87,0.00,CLR,,0.00,WeatherDisplay:10.37,2013-05-07 01:01:00,
2013-05-06 21:06:00,48.6,44.9,30.15,SSE,158,1.6,3.5,87,0.00,CLR,,0.00,WeatherDisplay:10.37,2013-05-07 01:06:00,
2013-05-06 21:11:00,48.6,44.6,30.15,SW,225,1.6,2.7,86,0.00,CLR,,0.00,WeatherDisplay:10.37,2013-05-07 01:11:00,
2013-05-06 21:16:00,48.6,44.9,30.15,SE,135,3.3,3.3,87,0.00,CLR,,0.00,WeatherDisplay:10.37,2013-05-07 01:16:00,
2013-05-06 21:21:00,48.6,44.9,30.15,SE,135,1.6,2.3,87,0.00,CLR,,0.00,WeatherDisplay:10.37,2013-05-07 01:21:00,
2013-05-06 21:26:00,48.6,44.9,30.15,SE,135,3.6,4.6,87,0.00,CLR,,0.00,WeatherDisplay:10.37,2013-05-07 01:26:00,
2013-05-06 21:31:00,48.4,44.7,30.15,SSE,158,2.2,2.7,87,0.00,CLR,,0.00,WeatherDisplay:10.37,2013-05-07 01:31:00,
2013-05-06 21:36:00,48.4,44.7,30.15,SE,135,0.7,2.3,87,0.00,CLR,,0.00,WeatherDisplay:10.37,2013-05-07 01:36:00,
2013-05-06 21:41:00,48.4,44.7,30.15,SSW,202,1.8,3.5,87,0.00,CLR,,0.00,WeatherDisplay:10.37,2013-05-07 01:41:00,
2013-05-06 21:46:00,48.4,44.7,30.15,SSE,158,2.0,2.7,87,0.00,CLR,,0.00,WeatherDisplay:10.37,2013-05-07 01:46:00,
2013-05-06 21:51:00,48.2,44.5,30.15,SSE,158,1.4,2.7,87,0.00,CLR,,0.00,WeatherDisplay:10.37,2013-05-07 01:51:00,
2013-05-06 21:56:00,48.2,44.5,30.15,South,180,0.5,3.5,87,0.00,CLR,,0.00,WeatherDisplay:10.37,2013-05-07 01:56:00,
2013-05-06 22:01:00,48.2,44.5,30.15,SE,135,0.0,4.6,87,0.00,CLR,,0.00,WeatherDisplay:10.37,2013-05-07 02:01:00,
2013-05-06 22:06:00,48.2,44.5,30.15,SE,135,0.0,2.7,87,0.00,CLR,,0.00,WeatherDisplay:10.37,2013-05-07 02:06:00,
2013-05-06 22:11:00,48.2,44.5,30.15,SSE,158,1.1,2.7,87,0.00,CLR,,0.00,WeatherDisplay:10.37,2013-05-07 02:11:00,
2013-05-06 22:16:00,48.2,44.5,30.15,SSE,158,1.1,2.7,87,0.00,CLR,,0.00,WeatherDisplay:10.37,2013-05-07 02:16:00,
2013-05-06 22:21:00,48.2,44.5,30.15,SSE,158,1.6,2.7,87,0.00,CLR,,0.00,WeatherDisplay:10.37,2013-05-07 02:21:00,
2013-05-06 22:26:00,48.4,44.7,30.15,South,180,1.8,3.5,87,0.00,CLR,,0.00,WeatherDisplay:10.37,2013-05-07 02:26:00,
2013-05-06 22:31:00,48.2,44.5,30.15,SSW,202,3.1,3.1,87,0.00,CLR,,0.00,WeatherDisplay:10.37,2013-05-07 02:31:00,
2013-05-06 22:36:00,48.4,44.7,30.15,SSW,202,0.5,2.7,87,0.00,CLR,,0.00,WeatherDisplay:10.37,2013-05-07 02:36:00,
2013-05-06 22:41:00,48.4,44.7,30.15,SSW,202,1.8,2.7,87,0.00,CLR,,0.00,WeatherDisplay:10.37,2013-05-07 02:41:00,
2013-05-06 22:46:00,48.4,44.7,30.15,South,180,0.0,2.7,87,0.00,CLR,,0.00,WeatherDisplay:10.37,2013-05-07 02:46:00,
2013-05-06 22:51:00,48.4,44.7,30.14,SSW,202,1.1,2.7,87,0.00,CLR,,0.00,WeatherDisplay:10.37,2013-05-07 02:51:00,
2013-05-06 22:56:00,48.4,44.7,30.14,SSW,202,0.5,2.7,87,0.00,CLR,,0.00,WeatherDisplay:10.37,2013-05-07 02:56:00,
2013-05-06 23:01:00,48.4,44.7,30.14,South,180,1.1,2.7,87,0.00,CLR,,0.00,WeatherDisplay:10.37,2013-05-07 03:01:00,
2013-05-06 23:06:00,48.2,44.5,30.14,SSE,158,0.9,2.7,87,0.00,CLR,,0.00,WeatherDisplay:10.37,2013-05-07 03:06:00,
2013-05-06 23:11:00,48.2,44.5,30.14,SW,225,0.2,2.7,87,0.00,CLR,,0.00,WeatherDisplay:10.37,2013-05-07 03:11:00,
2013-05-06 23:16:00,48.2,44.5,30.13,SW,225,0.0,2.7,87,0.00,CLR,,0.00,WeatherDisplay:10.37,2013-05-07 03:16:00,
2013-05-06 23:21:00,48.0,44.3,30.13,SW,225,0.0,2.7,87,0.00,CLR,,0.00,WeatherDisplay:10.37,2013-05-07 03:21:00,
2013-05-06 23:26:00,48.0,44.3,30.13,SW,225,0.5,2.7,87,0.00,CLR,,0.00,WeatherDisplay:10.37,2013-05-07 03:26:00,
2013-05-06 23:31:00,48.0,44.3,30.13,SW,225,0.7,2.3,87,0.00,CLR,,0.00,WeatherDisplay:10.37,2013-05-07 03:31:00,
2013-05-06 23:36:00,48.0,44.3,30.13,South,180,0.5,2.7,87,0.00,CLR,,0.00,WeatherDisplay:10.37,2013-05-07 03:36:00,
2013-05-06 23:41:00,48.0,44.3,30.13,SSE,158,1.6,2.7,87,0.00,CLR,,0.00,WeatherDisplay:10.37,2013-05-07 03:41:00,
2013-05-06 23:46:00,48.0,44.6,30.13,SSW,202,0.0,2.3,88,0.00,CLR,,0.00,WeatherDisplay:10.37,2013-05-07 03:46:00,
2013-05-06 23:51:00,48.0,44.3,30.13,SSW,202,0.7,2.7,87,0.00,CLR,,0.00,WeatherDisplay:10.37,2013-05-07 03:51:00,
2013-05-06 23:56:00,48.0,44.3,30.13,SW,225,0.2,2.7,87,0.00,CLR,,0.00,WeatherDisplay:10.37,2013-05-07 03:56:00,